星链-5159 (STARLINK-5159 )

导读 | 星芒AI

STARLINK-5159 是 SpaceX Starlink 卫星互联网项目中的第 5159 颗卫星。该卫星属于“星链”计划的中轨道(MEO)卫星群,旨在为全球用户提供高速、低延迟的互联网服务。它于 2023 年发射,运行在约 550 公里的轨道高度,采用先进的推进系统和激光通信技术,以提升网络性能并减少太空碎片风险。作为星链星座的一部分,STARLINK-5159 有助于扩大覆盖范围,特别是在偏远和网络基础设施薄弱的地区。

基本信息
目录编号:
53974
目录名称:
STARLINK-5159
国际标识:
2022-125L
轨道中心:
EARTH
卫星名称:
星链-5159
卫星全名:
星链-5159 (STARLINK-5159 )
卫星状态:
在轨 (已飞行1126 天)
发射日期:
2022-10-05 UTC
国别 :
美国 (US)
星等 :
--
轨道信息
数据来源 国际轨道数据
星历时间: 2025-11-04T20:42:41+0800
9小时前
查看轨道信息
半长轴: 6917.878km
偏心率: 0.0001137
轨道倾角: 53.218°
近地点辐角 88.294°
升交点赤经 45.588°
平近点角 271.818°
近地点: 538.956km
远地点: 540.53km
周期: 95.437分钟
每日圈数: 15.088409
详细信息
固有亮度:
5
最大亮度:
2.5
卫星平台:
Starlink v1.5
覆盖范围:
全球
运营商:
太空探索技术公司
运营商所在国:
美国
制造商(研发单位):
太空探索技术公司
制造商所在国:
美国
使用方式:
暂无
卫星简介
星链(Starlink)计划是由太空探索技术公司(SpaceX)提出的一个巨型低轨卫星互联网星座项目,计划在2019年至2024年间在太空搭建由约1.2万颗卫星组成的“星链”网络,其中1584颗将部署在地球上空550千米处的近地轨道,并从2020年开始工作。该卫星仍在工作。
2D轨道图
3D轨道图
轨道高度分析图
轨道倾角分析图
轨道综合分析图
查看轨道综合分析图